• In Uzbekistan
  • List of Countries
  • For 7 days
  • Water Temperature
  • Satellite Maps
  • Weather Map
  • Weather Widgets
  • user-avatar
    Login

    Hourly Weather Vougeot

    Today, 23 February, Friday

    Time Temperature Precipitation Wind Pressure Humidity
    00:00 -4°C° 0 mm 4 mps 730 mmHg 66%
    01:00 -4°C° 0 mm 4 mps 730 mmHg 66%
    02:00 -4°C° 0 mm 4 mps 730 mmHg 67%
    03:00 -4°C° 0 mm 4 mps 729 mmHg 67%
    04:00 -4°C° 0 mm 4 mps 729 mmHg 68%
    05:00 -5°C° 0 mm 4 mps 729 mmHg 68%
    06:00 -5°C° 0 mm 3 mps 730 mmHg 71%
    07:00 -4°C° 0 mm 4 mps 730 mmHg 66%
    08:00 -3°C° 0 mm 4 mps 730 mmHg 62%
    09:00 -2°C° 0 mm 5 mps 730 mmHg 57%
    10:00 -1°C° 0 mm 5 mps 729 mmHg 54%
    11:00 +1°C° 0 mm 5 mps 729 mmHg 51%
    12:00 +2°C° 0 mm 5 mps 729 mmHg 48%
    13:00 +2°C° 0 mm 5 mps 729 mmHg 49%
    14:00 +2°C° 0 mm 5 mps 729 mmHg 49%
    15:00 +2°C° 0 mm 5 mps 728 mmHg 50%
    16:00 +1°C° 0 mm 4 mps 729 mmHg 56%
    17:00 0°C° 0 mm 4 mps 729 mmHg 61%
    18:00 -2°C° 0 mm 4 mps 729 mmHg 67%
    19:00 -2°C° 0 mm 4 mps 729 mmHg 70%
    20:00 -3°C° 0 mm 4 mps 729 mmHg 72%
    21:00 -4°C° 0 mm 4 mps 729 mmHg 75%
    22:00 -4°C° 0 mm 3 mps 729 mmHg 76%
    23:00 -4°C° 0 mm 3 mps 729 mmHg 78%

    Tomorrow, 24 February, Saturday

    Time Temperature Precipitation Wind Pressure Humidity
    00:00 -4°C° 0 mm 3 mps 729 mmHg 79%
    01:00 -4°C° 0 mm 3 mps 729 mmHg 79%
    02:00 -4°C° 0 mm 3 mps 729 mmHg 80%
    03:00 -5°C° 0 mm 3 mps 729 mmHg 80%
    04:00 -5°C° 0 mm 3 mps 729 mmHg 80%
    05:00 -5°C° 0 mm 3 mps 729 mmHg 80%
    06:00 -5°C° 0 mm 3 mps 729 mmHg 80%
    07:00 -2°C° 0 mm 3 mps 729 mmHg 74%
    08:00 -2°C° 0 mm 4 mps 729 mmHg 68%
    09:00 -1°C° 0 mm 4 mps 729 mmHg 62%
    10:00 +1°C° 0 mm 4 mps 729 mmHg 59%
    11:00 +3°C° 0 mm 4 mps 729 mmHg 56%
    12:00 +5°C° 0 mm 4 mps 729 mmHg 53%
    13:00 +5°C° 0 mm 5 mps 729 mmHg 53%
    14:00 +5°C° 0 mm 5 mps 729 mmHg 54%
    15:00 +6°C° 0 mm 5 mps 729 mmHg 55%
    16:00 +3°C° 0 mm 5 mps 729 mmHg 58%
    17:00 +1°C° 0 mm 5 mps 729 mmHg 61%
    18:00 0°C° 0 mm 5 mps 729 mmHg 64%
    19:00 -1°C° 0 mm 5 mps 730 mmHg 62%
    20:00 -2°C° 0 mm 5 mps 730 mmHg 61%
    21:00 -2°C° 0 mm 5 mps 730 mmHg 60%
    22:00 -4°C° 0 mm 5 mps 730 mmHg 61%
    23:00 -4°C° 0 mm 5 mps 730 mmHg 62%

    Day after tomorrow, 25 February, Sunday

    Time Temperature Precipitation Wind Pressure Humidity
    00:00 -5°C° 0 mm 5 mps 730 mmHg 64%
    01:00 -5°C° 0 mm 5 mps 730 mmHg 64%
    02:00 -5°C° 0 mm 5 mps 730 mmHg 64%
    03:00 -5°C° 0 mm 5 mps 730 mmHg 64%
    04:00 -6°C° 0 mm 5 mps 730 mmHg 63%
    05:00 -6°C° 0 mm 5 mps 731 mmHg 61%
    06:00 -6°C° 0 mm 5 mps 731 mmHg 60%
    07:00 -5°C° 0 mm 6 mps 731 mmHg 55%
    08:00 -5°C° 0 mm 6 mps 731 mmHg 50%
    09:00 -4°C° 0 mm 6 mps 732 mmHg 45%
    10:00 -3°C° 0 mm 7 mps 732 mmHg 42%
    11:00 -2°C° 0 mm 7 mps 732 mmHg 38%
    12:00 -1°C° 0 mm 7 mps 732 mmHg 34%
    13:00 -1°C° 0 mm 7 mps 732 mmHg 33%
    14:00 -1°C° 0 mm 7 mps 732 mmHg 32%
    15:00 -1°C° 0 mm 7 mps 732 mmHg 31%
    16:00 -3°C° 0 mm 6 mps 732 mmHg 33%
    17:00 -4°C° 0 mm 6 mps 733 mmHg 35%
    18:00 -6°C° 0 mm 5 mps 733 mmHg 38%
    19:00 -6°C° 0 mm 5 mps 733 mmHg 38%
    20:00 -7°C° 0 mm 5 mps 734 mmHg 39%
    21:00 -7°C° 0 mm 5 mps 734 mmHg 39%
    22:00 -8°C° 0 mm 5 mps 734 mmHg 39%
    23:00 -8°C° 0 mm 5 mps 734 mmHg 39%

    26 February, Monday

    Time Temperature Precipitation Wind Pressure Humidity
    00:00 -8°C° 0 mm 5 mps 734 mmHg 39%
    01:00 -10°C° 0 mm 5 mps 734 mmHg 39%
    02:00 -10°C° 0 mm 5 mps 734 mmHg 39%
    03:00 -10°C° 0 mm 5 mps 734 mmHg 38%
    04:00 -10°C° 0 mm 6 mps 734 mmHg 38%
    05:00 -11°C° 0 mm 6 mps 734 mmHg 38%
    06:00 -11°C° 0 mm 6 mps 733 mmHg 39%
    07:00 -10°C° 0 mm 6 mps 733 mmHg 37%
    08:00 -11°C° 0 mm 7 mps 733 mmHg 36%
    09:00 -9°C° 0 mm 7 mps 733 mmHg 35%
    10:00 -8°C° 0 mm 7 mps 733 mmHg 33%
    11:00 -7°C° 0 mm 7 mps 733 mmHg 30%
    12:00 -6°C° 0 mm 7 mps 733 mmHg 28%
    13:00 -6°C° 0 mm 7 mps 732 mmHg 28%
    14:00 -6°C° 0 mm 7 mps 732 mmHg 28%
    15:00 -6°C° 0 mm 7 mps 732 mmHg 28%
    16:00 -6°C° 0 mm 6 mps 732 mmHg 31%
    17:00 -7°C° 0 mm 5 mps 732 mmHg 34%
    18:00 -8°C° 0 mm 5 mps 732 mmHg 37%
    19:00 -8°C° 0 mm 5 mps 732 mmHg 37%
    20:00 -8°C° 0 mm 5 mps 732 mmHg 38%
    21:00 -10°C° 0 mm 5 mps 732 mmHg 38%
    22:00 -10°C° 0 mm 5 mps 732 mmHg 39%
    23:00 -10°C° 0 mm 5 mps 732 mmHg 40%

    27 February, Tuesday

    Time Temperature Precipitation Wind Pressure Humidity
    00:00 -10°C° 0 mm 5 mps 731 mmHg 40%
    01:00 -11°C° 0 mm 5 mps 731 mmHg 42%
    02:00 -11°C° 0 mm 5 mps 731 mmHg 43%
    03:00 -11°C° 0 mm 5 mps 731 mmHg 44%
    04:00 -11°C° 0 mm 5 mps 731 mmHg 45%
    05:00 -12°C° 0 mm 5 mps 731 mmHg 47%
    06:00 -12°C° 0 mm 5 mps 730 mmHg 48%
    07:00 -11°C° 0 mm 5 mps 731 mmHg 45%
    08:00 -10°C° 0 mm 5 mps 731 mmHg 43%
    09:00 -10°C° 0 mm 5 mps 731 mmHg 40%
    10:00 -8°C° 0 mm 5 mps 731 mmHg 37%
    11:00 -7°C° 0 mm 5 mps 731 mmHg 33%
    12:00 -5°C° 0 mm 5 mps 731 mmHg 30%
    13:00 -5°C° 0 mm 5 mps 730 mmHg 29%
    14:00 -5°C° 0 mm 5 mps 730 mmHg 29%
    15:00 -5°C° 0 mm 5 mps 730 mmHg 28%
    16:00 -5°C° 0 mm 4 mps 730 mmHg 31%
    17:00 -7°C° 0 mm 4 mps 730 mmHg 35%
    18:00 -7°C° 0 mm 3 mps 731 mmHg 38%
    19:00 -8°C° 0 mm 3 mps 731 mmHg 40%
    20:00 -8°C° 0 mm 3 mps 731 mmHg 41%
    21:00 -8°C° 0 mm 3 mps 731 mmHg 43%
    22:00 -9°C° 0 mm 3 mps 731 mmHg 44%
    23:00 -9°C° 0 mm 3 mps 731 mmHg 45%

    28 February, Wednesday

    Time Temperature Precipitation Wind Pressure Humidity
    00:00 -9°C° 0 mm 3 mps 731 mmHg 47%
    01:00 -9°C° 0 mm 3 mps 731 mmHg 47%
    02:00 -10°C° 0 mm 3 mps 731 mmHg 48%
    03:00 -10°C° 0 mm 3 mps 731 mmHg 49%
    04:00 -10°C° 0 mm 3 mps 731 mmHg 50%
    05:00 -10°C° 0 mm 3 mps 731 mmHg 50%
    06:00 -12°C° 0 mm 3 mps 731 mmHg 51%
    07:00 -9°C° 0 mm 3 mps 730 mmHg 47%
    08:00 -8°C° 0 mm 3 mps 730 mmHg 44%
    09:00 -8°C° 0 mm 4 mps 730 mmHg 40%
    10:00 -5°C° 0 mm 4 mps 729 mmHg 37%
    11:00 -4°C° 0 mm 4 mps 729 mmHg 34%
    12:00 -1°C° 0 mm 3 mps 728 mmHg 31%
    13:00 -1°C° 0 mm 3 mps 727 mmHg 31%
    14:00 -1°C° 0 mm 3 mps 727 mmHg 32%
    15:00 -1°C° 0 mm 3 mps 726 mmHg 32%
    16:00 -1°C° 0 mm 3 mps 726 mmHg 38%
    17:00 -2°C° 0 mm 3 mps 726 mmHg 43%
    18:00 -4°C° 0 mm 3 mps 726 mmHg 49%
    19:00 -4°C° 0.2 mm 4 mps 725 mmHg 57%
    20:00 -5°C° 0.2 mm 4 mps 725 mmHg 66%
    21:00 -5°C° 0.2 mm 4 mps 725 mmHg 75%
    22:00 -5°C° 0.4 mm 4 mps 724 mmHg 80%
    23:00 -5°C° 0.4 mm 4 mps 724 mmHg 85%
    Show more